This is the latest recevied weather packets stored in our database for station/object EA1IRT-1. If no packets are shown the sender has not sent any weather packets the latest 10 day(s).
| Time | Temp. | Humidity | Pressure | Rain* | Wind** | Luminosity | Snow |
|---|---|---|---|---|---|---|---|
| 1778008986 | 15° C | 79% | 1016 hPa | - | - | - | - |
| 1778008064 | 15° C | 77% | 1015.9 hPa | - | - | - | - |
| 1778007183 | 15° C | 76% | 1016 hPa | - | - | - | - |
| 1778006264 | 15.56° C | 75% | 1015.8 hPa | - | - | - | - |
| 1778005364 | 15.56° C | 74% | 1015.9 hPa | - | - | - | - |
| 1778004464 | 16.11° C | 72% | 1015.9 hPa | - | - | - | - |
| 1778003564 | 16.11° C | 68% | 1015.7 hPa | - | - | - | - |
| 1778002663 | 17.22° C | 65% | 1015.8 hPa | - | - | - | - |
| 1778001763 | 17.78° C | 65% | 1015.9 hPa | - | - | - | - |
| 1778000863 | 17.22° C | 71% | 1015.8 hPa | - | - | - | - |
| 1777999063 | 17.22° C | 65% | 1015.7 hPa | - | - | - | - |
| 1777998138 | 17.78° C | 66% | 1015.6 hPa | - | - | - | - |
| 1777997221 | 18.33° C | 63% | 1015.5 hPa | - | - | - | - |
| 1777996315 | 18.33° C | 64% | 1015.5 hPa | - | - | - | - |
| 1777995415 | 18.33° C | 63% | 1015.5 hPa | - | - | - | - |
| 1777994515 | 18.89° C | 65% | 1015.5 hPa | - | - | - | - |
| 1777993615 | 18.89° C | 64% | 1015.5 hPa | - | - | - | - |
| 1777992715 | 18.89° C | 64% | 1015.4 hPa | - | - | - | - |
| 1777991814 | 18.89° C | 63% | 1015.5 hPa | - | - | - | - |
| 1777990914 | 18.89° C | 64% | 1015.5 hPa | - | - | - | - |
| 1777990014 | 18.33° C | 62% | 1015.4 hPa | - | - | - | - |
| 1777989114 | 18.89° C | 61% | 1015.2 hPa | - | - | - | - |
| 1777988214 | 18.33° C | 62% | 1015.3 hPa | - | - | - | - |
| 1777987289 | 19.44° C | 63% | 1015.3 hPa | - | - | - | - |
| 1777986365 | 19.44° C | 62% | 1015.2 hPa | - | - | - | - |
* Rain since midnight (hover to see other rain measurements)
** Current wind speed in m/s (hover to see current wind gust speed)